Location: Sperry Observatory
(40.6664°N, 74.3236°W)
Time: 00:08:01
(UTC-05:00)

Amateur Radio Satellites - All Passes

Search period start: 22 February 2017 23:38
Search period end: 23 February 2017 23:38
Location: Sperry Observatory, 40.6664°N, 74.3236°W

Satellite Date Start Highest point End Downlink Frequencies (MHz)
Time Altitude Azimuth
SO-50 22 Feb 23:44:18 23:48:29 32° 311° (NW) 23:52:38 436.795
ESTCUBE 1 22 Feb 23:45:48 23:48:54 18° 267° (W) 23:52:02 437.505/2401.250
50 SAT 22 Feb 23:58:54 00:02:14 40° 261° (W) 00:05:34 437.505
DUCHIFAT 1 23 Feb 00:02:52 00:07:08 76° 284° (WNW) 00:11:23 145.980
EO-79 23 Feb 00:10:19 00:14:29 51° 287° (WNW) 00:18:38 145.935-145.965
VELOX 1 23 Feb 00:23:35 00:26:48 20° 266° (W) 00:30:03 145.980
DX 1 23 Feb 00:23:37 00:27:42 42° 261° (W) 00:31:50 434.975-435.025
POLYITAN 1 23 Feb 00:27:09 00:31:01 34° 290° (WNW) 00:34:53 437.675
RS-15 23 Feb 00:27:39 00:38:23 32° 30° (NNE) 00:48:49 29.354- 29.394
NANOSAT C BR1 23 Feb 00:29:24 00:33:17 34° 289° (WNW) 00:37:09 145.865
QB50P2 23 Feb 00:30:06 00:33:50 29° 291° (WNW) 00:37:33 145.880/145.840
AIST 2D 23 Feb 00:30:15 00:32:06 14° 293° (WNW) 00:33:57 435.315
PCSat 23 Feb 00:33:44 00:37:59 23° 47° (NE) 00:42:13 145.827
O/OREOS (USA 219) 23 Feb 00:37:39 00:40:03 14° 307° (NW) 00:42:27 437.305
UKube-1 23 Feb 00:41:41 00:45:39 37° 262° (W) 00:49:40 .
FO-29 23 Feb 00:43:30 00:48:36 20° 304° (NW) 00:53:30 435.910
SPROUT 23 Feb 00:55:25 00:56:44 11° 270° (W) 00:58:04 437.525
BUGSAT 1 23 Feb 01:11:59 01:15:52 36° 289° (WNW) 01:19:47 437.445
ITUPSAT 1 23 Feb 01:12:38 01:16:50 31° 68° (ENE) 01:21:03 437.325
BEESAT 23 Feb 01:20:56 01:25:20 38° 70° (ENE) 01:29:45 436.000
Oscar 19 23 Feb 01:34:01 01:39:10 86° 106° (ESE) 01:44:17 437.125/150
Gurwin Techsat 1B 23 Feb 01:56:12 02:01:34 76° 104° (ESE) 02:06:52 435.225
AO-7 23 Feb 02:02:09 02:06:55 16° 90° (E) 02:11:38 .
ITAMSAT 1 23 Feb 02:03:04 02:06:07 15° 91° (E) 02:09:09 435.822/435.867
MOZHAYETS 4 23 Feb 02:06:50 02:11:06 37° 71° (ENE) 02:15:23
PCSat 23 Feb 02:16:26 02:21:46 59° 246° (WSW) 02:27:05 145.827
RS-15 23 Feb 02:40:34 02:53:00 84° 58° (ENE) 03:04:51 29.354- 29.394
ITUPSAT 1 23 Feb 02:50:31 02:54:37 28° 264° (W) 02:58:45 437.325
KKS-1 23 Feb 02:58:13 03:02:13 34° 70° (ENE) 03:06:13 437.445
BEESAT 23 Feb 02:59:28 03:03:12 22° 266° (W) 03:06:57 436.000
CUBESAT XI-V 23 Feb 02:59:33 03:03:07 22° 67° (ENE) 03:06:40 437.345
Oscar 19 23 Feb 03:15:43 03:17:44 12° 301° (WNW) 03:19:44 437.125/150
M-CUBED/EXP-1 PRIME 23 Feb 03:28:32 03:31:10 22° 65° (ENE) 03:33:46 437.505
Gurwin Techsat 1B 23 Feb 03:37:59 03:40:49 15° 300° (WNW) 03:43:40 435.225
STARS 23 Feb 03:39:49 03:43:55 42° 72° (ENE) 03:48:04 437.465
ITAMSAT 1 23 Feb 03:40:49 03:46:00 63° 288° (WNW) 03:51:09 435.822/435.867
MOZHAYETS 4 23 Feb 03:44:49 03:48:21 21° 266° (W) 03:51:54
AO-85 23 Feb 03:47:18 03:50:48 21° 113° (ESE) 03:54:07 145.980
AO-7 23 Feb 03:52:23 04:00:46 85° 108° (ESE) 04:09:04 .
KKS-1 23 Feb 04:35:28 04:38:50 21° 266° (W) 04:42:12 437.445
CUBESAT XI-V 23 Feb 04:35:54 04:40:14 38° 262° (W) 04:44:36 437.345
DOVE 4 23 Feb 04:47:40 04:49:07 11° 90° (E) 04:50:36 437.250
RS-15 23 Feb 04:54:43 05:03:57 27° 259° (W) 05:12:55 29.354- 29.394
M-CUBED/EXP-1 PRIME 23 Feb 05:03:22 05:05:39 17° 259° (W) 05:07:55 437.505
XW-2C 23 Feb 05:04:30 05:05:56 12° 91° (E) 05:07:21 145.795 - 145.815
LilacSat-2 23 Feb 05:17:22 05:20:04 18° 93° (E) 05:22:43 437.200
STARS 23 Feb 05:17:39 05:20:27 17° 267° (W) 05:23:17 437.465
NUDT-PHONESAT 23 Feb 05:25:02 05:27:34 17° 93° (E) 05:30:04 437.300
AO-85 23 Feb 05:26:43 05:31:00 40° 307° (NW) 05:35:00 145.980
STRAND 1 23 Feb 05:34:01 05:38:14 26° 66° (ENE) 05:42:28 437.568
AO-7 23 Feb 05:46:30 05:52:33 23° 307° (NW) 05:58:34 .
CUTE-I 23 Feb 06:08:54 06:14:14 61° 101° (ESE) 06:19:32 437.470
KAITUO 1B 23 Feb 06:19:42 06:23:30 86° 101° (ESE) 06:27:14 145.475/437.950
XW-2F 23 Feb 06:20:03 06:23:52 78° 284° (WNW) 06:27:39 145.980 - 146.000
DOVE 4 23 Feb 06:22:32 06:27:11 74° 284° (WNW) 06:32:06 437.250
XW-2D 23 Feb 06:23:05 06:26:54 67° 285° (WNW) 06:30:40 145.860 - 145.880
CUTE 1.7 + AOD 2 23 Feb 06:25:40 06:27:20 12° 90° (E) 06:29:00 437.475
XW-2B 23 Feb 06:28:05 06:31:52 60° 285° (WNW) 06:35:37 145.730 - 145.750
BEESAT 3 23 Feb 06:31:53 06:35:42 61° 120° (ESE) 06:39:37 437.485
SO-50 23 Feb 06:35:19 06:39:11 27° 47° (NE) 06:43:01 436.795
XW-2C 23 Feb 06:36:42 06:40:23 45° 287° (WNW) 06:44:02 145.795 - 145.815
LilacSat-2 23 Feb 06:50:59 06:54:23 30° 289° (WNW) 06:57:45 437.200
NUDT-PHONESAT 23 Feb 06:58:13 07:01:34 30° 289° (WNW) 07:04:51 437.300
BEESAT 2 23 Feb 07:04:22 07:08:13 55° 118° (ESE) 07:12:08 435.950
STRAND 1 23 Feb 07:12:27 07:17:12 38° 262° (W) 07:21:59 437.568
HO-68 23 Feb 07:13:01 07:19:53 48° 100° (E) 07:26:43 435.675
XW-2A 23 Feb 07:18:07 07:21:36 84° 102° (ESE) 07:25:03 145.665 - 145.685
AAUSAT CUBESAT 2 23 Feb 07:23:52 07:26:40 18° 93° (E) 07:29:26 437.432
SEEDS 23 Feb 07:26:03 07:29:58 38° 98° (E) 07:33:51 437.485
O/OREOS (USA 219) 23 Feb 07:28:19 07:30:37 14° 52° (NE) 07:32:54 437.305
CUTE-I 23 Feb 07:50:09 07:53:46 19° 298° (WNW) 07:57:22 437.470
CUBEBUG 2 23 Feb 07:50:51 07:55:32 52° 99° (E) 08:00:09 437.445
UNISAT 6 23 Feb 07:58:31 08:00:42 13° 62° (ENE) 08:02:55 437.425
CUTE 1.7 + AOD 2 23 Feb 07:59:22 08:03:30 54° 286° (WNW) 08:07:36 437.475
TIGRISAT 23 Feb 07:59:50 08:01:50 13° 62° (ENE) 08:03:51 435.000
ISS 23 Feb 08:07:47 08:10:48 34° 136° (SE) 08:13:50 437.550
BEESAT 3 23 Feb 08:11:24 08:13:42 15° 317° (NW) 08:16:01 437.485
AO-73 23 Feb 08:14:44 08:18:48 31° 96° (E) 08:22:46 145.935
SO-50 23 Feb 08:15:36 08:19:41 35° 245° (WSW) 08:23:44 436.795
Oscar 11 23 Feb 08:24:41 08:28:38 33° 97° (E) 08:32:31 .
PRISM 23 Feb 08:32:15 08:36:20 76° 75° (ENE) 08:40:25 437.425
UWE-3 23 Feb 08:33:39 08:38:22 88° 288° (WNW) 08:43:00 435.000/436.395/437.385
YUBILEINY 23 Feb 08:34:11 08:37:43 13° 74° (ENE) 08:41:17 435.215
Tancredo 1 23 Feb 08:39:10 08:42:25 77° 141° (SE) 08:45:41 437.200
BEESAT 2 23 Feb 08:43:48 08:46:19 16° 316° (NW) 08:48:52 435.950
AAUSAT CUBESAT 2 23 Feb 08:58:29 09:02:14 35° 289° (WNW) 09:05:58 437.432
ZACube-1 23 Feb 09:00:30 09:05:06 76° 285° (WNW) 09:09:35 437.345
HO-68 23 Feb 09:01:08 09:07:22 34° 298° (WNW) 09:13:35 435.675
SEEDS 23 Feb 09:02:35 09:05:21 17° 294° (WNW) 09:08:07 437.485
O/OREOS (USA 219) 23 Feb 09:05:58 09:10:32 70° 250° (WSW) 09:15:05 437.305
FO-29 23 Feb 09:07:25 09:13:59 43° 66° (ENE) 09:21:07 435.910
DELFI C3 23 Feb 09:18:04 09:21:46 40° 98° (E) 09:25:28 145.870
CUBEBUG 2 23 Feb 09:28:36 09:31:41 17° 296° (WNW) 09:34:47 437.445
EO-79 23 Feb 09:30:20 09:30:54 10° 61° (ENE) 09:31:28 145.935-145.965
AIST 2D 23 Feb 09:31:24 09:33:12 13° 67° (ENE) 09:35:00 435.315
UNISAT 6 23 Feb 09:32:25 09:36:49 63° 259° (W) 09:41:23 437.425
TIGRISAT 23 Feb 09:33:28 09:37:53 67° 259° (W) 09:42:28 435.000
ISS 23 Feb 09:44:17 09:47:16 31° 333° (NNW) 09:50:16 437.550
POLYITAN 1 23 Feb 09:44:56 09:47:27 16° 64° (ENE) 09:49:58 437.675
NANOSAT C BR1 23 Feb 09:46:56 09:49:18 15° 64° (ENE) 09:51:40 145.865
QB50P2 23 Feb 09:47:26 09:50:15 18° 66° (ENE) 09:53:06 145.880/145.840
AO-73 23 Feb 09:51:09 09:54:52 25° 292° (WNW) 09:58:31 145.935
Oscar 11 23 Feb 10:01:15 10:04:32 21° 293° (WNW) 10:07:49 .
Tancredo 1 23 Feb 10:16:31 10:19:01 20° 340° (NNW) 10:21:31 437.200
YUBILEINY 23 Feb 10:24:06 10:32:52 74° 94° (E) 10:41:39 435.215
BUGSAT 1 23 Feb 10:28:07 10:29:54 13° 63° (ENE) 10:31:40 437.445
FO-29 23 Feb 10:52:32 10:58:58 39° 266° (W) 11:06:01 435.910
DUCHIFAT 1 23 Feb 10:53:52 10:58:02 74° 74° (ENE) 11:02:16 145.980
DELFI C3 23 Feb 10:53:57 10:56:14 15° 294° (WNW) 10:58:29 145.870
EO-79 23 Feb 11:01:49 11:06:01 75° 257° (WSW) 11:10:17 145.935-145.965
AIST 2D 23 Feb 11:02:49 11:06:06 36° 262° (W) 11:09:25 435.315
SPROUT 23 Feb 11:05:09 11:05:51 10° 89° (E) 11:06:34 437.525
Oscar 19 23 Feb 11:13:55 11:16:53 16° 61° (ENE) 11:19:51 437.125/150
POLYITAN 1 23 Feb 11:18:46 11:22:50 46° 261° (W) 11:26:57 437.675
NANOSAT C BR1 23 Feb 11:20:31 11:24:35 48° 260° (W) 11:28:42 145.865
QB50P2 23 Feb 11:21:45 11:25:44 40° 262° (W) 11:29:45 145.880/145.840
ISS 23 Feb 11:22:52 11:24:33 13° 353° (N) 11:26:12 437.550
50 SAT 23 Feb 11:25:30 11:26:59 12° 92° (E) 11:28:29 437.505
ESTCUBE 1 23 Feb 11:36:43 11:41:13 85° 284° (WNW) 11:45:41 437.505/2401.250
Gurwin Techsat 1B 23 Feb 11:39:53 11:42:58 16° 61° (ENE) 11:46:03 435.225
Tancredo 1 23 Feb 11:54:55 11:56:16 12° 360° (N) 11:57:37 437.200
BUGSAT 1 23 Feb 12:00:49 12:04:46 54° 260° (W) 12:08:47 437.445
DX 1 23 Feb 12:11:55 12:15:49 31° 97° (E) 12:19:42 434.975-435.025
VELOX 1 23 Feb 12:12:16 12:16:41 76° 102° (ESE) 12:21:06 145.980
AO-85 23 Feb 12:18:37 12:21:10 16° 44° (NE) 12:23:43 145.980
YUBILEINY 23 Feb 12:23:44 12:30:32 24° 294° (WNW) 12:37:22 435.215
UKube-1 23 Feb 12:28:42 12:32:39 34° 98° (E) 12:36:35 .
SPROUT 23 Feb 12:37:54 12:42:11 66° 286° (WNW) 12:46:27 437.525
Oscar 19 23 Feb 12:50:29 12:55:37 68° 258° (WSW) 13:00:46 437.125/150
50 SAT 23 Feb 12:57:05 13:00:16 34° 288° (WNW) 13:03:26 437.505
ISS 23 Feb 12:59:59 13:02:03 15° 13° (NNE) 13:04:06 437.550
AO-7 23 Feb 13:00:32 13:07:03 26° 55° (NE) 13:13:32 .
Gurwin Techsat 1B 23 Feb 13:17:00 13:22:17 71° 258° (WSW) 13:27:37 435.225
ITAMSAT 1 23 Feb 13:20:19 13:24:27 24° 65° (ENE) 13:28:36 435.822/435.867
Tancredo 1 23 Feb 13:31:03 13:33:31 20° 20° (NNE) 13:35:59 437.200
DX 1 23 Feb 13:48:25 13:51:50 23° 293° (WNW) 13:55:14 434.975-435.025
VELOX 1 23 Feb 13:51:24 13:52:30 11° 299° (WNW) 13:53:37 145.980
AO-85 23 Feb 13:58:03 14:01:49 48° 242° (WSW) 14:05:39 145.980
UKube-1 23 Feb 14:05:13 14:08:27 21° 294° (WNW) 14:11:40 .
ISS 23 Feb 14:35:53 14:39:06 51° 32° (NNE) 14:42:18 437.550
BEESAT 3 23 Feb 14:49:05 14:52:44 32° 51° (NE) 14:56:22 437.485
ITUPSAT 1 23 Feb 14:50:18 14:55:08 76° 103° (ESE) 14:59:55 437.325
AO-7 23 Feb 14:50:39 14:59:01 76° 254° (WSW) 15:07:25 .
BEESAT 23 Feb 14:58:25 15:03:15 87° 280° (W) 15:08:01 436.000
ITAMSAT 1 23 Feb 14:58:45 15:03:39 42° 261° (W) 15:08:36 435.822/435.867
RS-15 23 Feb 15:03:49 15:04:02 10° 91° (E) 15:04:16 29.354- 29.394
Tancredo 1 23 Feb 15:06:54 15:10:07 76° 218° (SW) 15:13:18 437.200
PCSat 23 Feb 15:16:15 15:19:53 19° 105° (ESE) 15:23:33 145.827
BEESAT 2 23 Feb 15:22:26 15:26:05 31° 50° (NE) 15:29:42 435.950
MOZHAYETS 4 23 Feb 15:38:40 15:43:19 88° 284° (WNW) 15:47:54
CUTE-I 23 Feb 15:54:04 15:56:26 13° 59° (ENE) 15:58:49 437.470
ISS 23 Feb 16:13:03 16:15:17 17° 229° (SW) 16:17:32 437.550
KKS-1 23 Feb 16:25:11 16:29:39 73° 102° (ESE) 16:34:07 437.445
BEESAT 3 23 Feb 16:27:01 16:30:10 22° 248° (WSW) 16:33:18 437.485
ITUPSAT 1 23 Feb 16:30:17 16:32:18 13° 300° (WNW) 16:34:20 437.325
CUBESAT XI-V 23 Feb 16:32:16 16:36:46 53° 100° (E) 16:41:14 437.345
BEESAT 23 Feb 16:39:44 16:40:13 10° 301° (WNW) 16:40:43 436.000
M-CUBED/EXP-1 PRIME 23 Feb 16:40:25 16:43:17 20° 101° (ESE) 16:46:18 437.505
AO-7 23 Feb 16:49:16 16:53:02 13° 272° (W) 16:56:48 .
PCSat 23 Feb 16:57:25 17:02:46 60° 302° (WNW) 17:08:09 145.827
KAITUO 1B 23 Feb 16:59:19 17:02:48 36° 72° (ENE) 17:06:19 145.475/437.950
XW-2F 23 Feb 17:00:21 17:04:00 44° 73° (ENE) 17:07:42 145.980 - 146.000
BEESAT 2 23 Feb 17:00:26 17:03:44 24° 247° (WSW) 17:07:00 435.950
RS-15 23 Feb 17:02:05 17:13:32 58° 112° (ESE) 17:25:26 29.354- 29.394
XW-2D 23 Feb 17:03:36 17:07:20 52° 74° (ENE) 17:11:06 145.860 - 145.880
STARS 23 Feb 17:05:11 17:09:38 88° 100° (E) 17:14:03 437.465
XW-2B 23 Feb 17:08:33 17:12:19 58° 75° (ENE) 17:16:08 145.730 - 145.750
XW-2C 23 Feb 17:17:02 17:20:51 77° 78° (ENE) 17:24:44 145.795 - 145.815
DOVE 4 23 Feb 17:28:05 17:32:13 75° 257° (WSW) 17:36:23 437.250
CUTE-I 23 Feb 17:30:22 17:35:42 87° 257° (WSW) 17:41:06 437.470
LilacSat-2 23 Feb 17:31:38 17:35:29 66° 259° (WSW) 17:39:22 437.200
NUDT-PHONESAT 23 Feb 17:36:31 17:40:15 74° 258° (WSW) 17:44:03 437.300
HO-68 23 Feb 17:41:31 17:47:50 35° 63° (ENE) 17:54:11 435.675
XW-2A 23 Feb 17:49:35 17:52:22 24° 71° (ENE) 17:55:12 145.665 - 145.685
KKS-1 23 Feb 18:04:03 18:05:36 12° 299° (WNW) 18:07:08 437.445
CUBESAT XI-V 23 Feb 18:10:56 18:13:42 16° 296° (WNW) 18:16:27 437.345
M-CUBED/EXP-1 PRIME 23 Feb 18:14:29 18:17:44 29° 294° (WNW) 18:21:12 437.505
AAUSAT CUBESAT 2 23 Feb 18:14:55 18:16:37 12° 64° (ENE) 18:18:20 437.432
SEEDS 23 Feb 18:17:26 18:20:59 26° 69° (ENE) 18:24:31 437.485
KAITUO 1B 23 Feb 18:34:44 18:36:57 15° 268° (W) 18:39:11 145.475/437.950
XW-2F 23 Feb 18:36:46 18:38:23 12° 269° (W) 18:40:00 145.980 - 146.000
XW-2D 23 Feb 18:41:03 18:41:50 10° 270° (W) 18:42:38 145.860 - 145.880
PCSat 23 Feb 18:45:27 18:47:20 12° 323° (NW) 18:49:11 145.827
CUBEBUG 2 23 Feb 18:48:27 18:52:33 39° 71° (ENE) 18:56:48 437.445
CUTE 1.7 + AOD 2 23 Feb 18:51:00 18:55:17 84° 257° (WSW) 18:59:36 437.475
AO-73 23 Feb 19:09:56 19:13:29 24° 67° (ENE) 19:17:05 145.935
RS-15 23 Feb 19:14:51 19:26:23 49° 316° (NW) 19:38:18 29.354- 29.394
Oscar 11 23 Feb 19:19:13 19:22:47 25° 69° (ENE) 19:26:23 .
STRAND 1 23 Feb 19:22:41 19:27:52 76° 103° (ESE) 19:33:00 437.568
XW-2A 23 Feb 19:22:53 19:25:08 17° 266° (W) 19:27:25 145.665 - 145.685
HO-68 23 Feb 19:28:32 19:35:21 46° 260° (W) 19:42:13 435.675
UWE-3 23 Feb 19:29:46 19:34:09 70° 76° (ENE) 19:38:42 435.000/436.395/437.385
AAUSAT CUBESAT 2 23 Feb 19:47:29 19:51:35 58° 260° (W) 19:55:42 437.432
SEEDS 23 Feb 19:53:04 19:56:36 25° 265° (W) 20:00:08 437.485
ZACube-1 23 Feb 19:55:18 19:59:43 79° 75° (ENE) 20:04:16 437.345
DELFI C3 23 Feb 20:03:34 20:06:42 23° 69° (ENE) 20:09:49 145.870
CUBEBUG 2 23 Feb 20:26:14 20:29:20 19° 268° (W) 20:32:31 437.445
YUBILEINY 23 Feb 20:35:08 20:43:00 36° 71° (ENE) 20:50:47 435.215
AO-73 23 Feb 20:45:33 20:49:31 32° 264° (W) 20:53:35 145.935
Oscar 11 23 Feb 20:55:04 20:58:49 28° 264° (W) 21:02:35 .
STRAND 1 23 Feb 21:03:44 21:06:23 14° 300° (WNW) 21:09:01 437.568
UWE-3 23 Feb 21:10:15 21:11:08 10° 272° (W) 21:12:01 435.000/436.395/437.385
UNISAT 6 23 Feb 21:24:37 21:28:41 28° 95° (E) 21:32:42 437.425
TIGRISAT 23 Feb 21:25:34 21:29:34 27° 95° (E) 21:33:31 435.000
RS-15 23 Feb 21:33:50 21:43:06 23° 348° (NNW) 21:52:24 29.354- 29.394
DELFI C3 23 Feb 21:38:02 21:41:22 26° 264° (W) 21:44:43 145.870
O/OREOS (USA 219) 23 Feb 21:41:12 21:43:22 13° 98° (E) 21:45:32 437.305
PRISM 23 Feb 21:48:57 21:52:58 62° 286° (WNW) 21:57:00 437.425
FO-29 23 Feb 22:02:27 22:09:34 40° 95° (E) 22:16:02 435.910
SO-50 23 Feb 22:28:34 22:33:15 78° 122° (ESE) 22:37:54 436.795
AIST 2D 23 Feb 22:29:04 22:31:21 16° 93° (E) 22:33:35 435.315
YUBILEINY 23 Feb 22:31:44 22:40:00 50° 271° (W) 22:48:13 435.215
ESTCUBE 1 23 Feb 22:35:28 22:39:59 84° 76° (ENE) 22:44:31 437.505/2401.250
DUCHIFAT 1 23 Feb 22:40:09 22:41:48 12° 90° (E) 22:43:28 145.980
EO-79 23 Feb 22:47:39 22:50:37 18° 93° (E) 22:53:34 145.935-145.965
UNISAT 6 23 Feb 23:01:16 23:05:18 29° 292° (WNW) 23:09:19 437.425
TIGRISAT 23 Feb 23:02:06 23:06:12 30° 291° (WNW) 23:10:17 435.000
POLYITAN 1 23 Feb 23:04:00 23:07:43 27° 96° (E) 23:11:23 437.675
NANOSAT C BR1 23 Feb 23:05:18 23:08:54 26° 96° (E) 23:12:29 145.865
QB50P2 23 Feb 23:06:46 23:10:38 32° 97° (E) 23:14:27 145.880/145.840
DX 1 23 Feb 23:07:13 23:10:51 27° 68° (ENE) 23:14:30 434.975-435.025
VELOX 1 23 Feb 23:08:53 23:13:12 63° 75° (ENE) 23:17:34 145.980
O/OREOS (USA 219) 23 Feb 23:17:51 23:22:14 55° 295° (WNW) 23:26:40 437.305
UKube-1 23 Feb 23:22:54 23:26:34 28° 69° (ENE) 23:30:16 .
50 SAT 23 Feb 23:30:12 23:33:41 78° 78° (ENE) 23:37:12 437.505
